PHCSU EHRD-EDRZ

Flight info

Callsign PHCSU
Flight time 0h 54m
Altitude 18999
Route EHRD INKE2A INKET DCT AWGAW DCT LULAT DCT EDRZ
Aircraft SF50/L-SR/S

Departure

Time 2026-04-30 20:13
Airport Rotterdam The Hague Airport (EHRD)

Arrival

Time 2026-04-30 21:07
Airport Zweibrücken Airport (EDRZ)
Time Latitude Longitude Altitude Speed Heading
2026-04-30 20:02 51.95062 4.43803 -5 ft 0 kts 145°
2026-04-30 20:05 51.95026 4.43791 -5 ft 12 kts 232°
2026-04-30 20:05 51.95004 4.43744 -5 ft 4 kts 230°
2026-04-30 20:05 51.95141 4.43539 -5 ft 20 kts 327°
2026-04-30 20:06 51.95240 4.43416 -5 ft 16 kts 270°
2026-04-30 20:06 51.95193 4.43278 -5 ft 12 kts 236°
2026-04-30 20:06 51.95158 4.43184 -5 ft 8 kts 240°
2026-04-30 20:06 51.95157 4.43125 -5 ft 5 kts 313°
2026-04-30 20:07 51.95179 4.43099 -5 ft 5 kts 337°
2026-04-30 20:07 51.95189 4.43097 -5 ft 0 kts
2026-04-30 20:11 51.95191 4.43097 -5 ft 2 kts
2026-04-30 20:12 51.95437 4.43400 -7 ft 56 kts 60°
2026-04-30 20:12 51.95763 4.44204 36 ft 111 kts 58°
2026-04-30 20:12 51.96167 4.45313 543 ft 112 kts 62°
2026-04-30 20:13 51.96517 4.46499 1002 ft 121 kts 68°
2026-04-30 20:13 51.96893 4.47944 1207 ft 150 kts 64°
2026-04-30 20:13 51.97412 4.49514 1490 ft 168 kts 60°
2026-04-30 20:13 51.98026 4.51245 1705 ft 187 kts 60°
2026-04-30 20:14 51.98784 4.53335 1782 ft 226 kts 59°
2026-04-30 20:14 51.99454 4.55706 2369 ft 228 kts 78°
2026-04-30 20:14 51.99583 4.58124 3635 ft 203 kts 93°
2026-04-30 20:14 51.99313 4.60239 4860 ft 186 kts 108°
2026-04-30 20:15 51.98680 4.62265 5098 ft 222 kts 126°
2026-04-30 20:15 51.97478 4.64130 5109 ft 255 kts 146°
2026-04-30 20:15 51.95847 4.65506 5109 ft 272 kts 154°
2026-04-30 20:15 51.94235 4.66792 5092 ft 239 kts 153°
2026-04-30 20:16 51.92842 4.67937 5165 ft 222 kts 153°
2026-04-30 20:16 51.91515 4.69022 6102 ft 198 kts 153°
2026-04-30 20:16 51.90369 4.69953 7023 ft 179 kts 153°
2026-04-30 20:16 51.89244 4.70868 7553 ft 183 kts 153°
2026-04-30 20:17 51.88103 4.71800 8108 ft 184 kts 153°
2026-04-30 20:17 51.86955 4.72735 8664 ft 186 kts 153°
2026-04-30 20:17 51.85799 4.73674 9213 ft 187 kts 153°
2026-04-30 20:17 51.84627 4.74627 9769 ft 189 kts 153°
2026-04-30 20:18 51.83448 4.75585 10318 ft 190 kts 153°
2026-04-30 20:18 51.82260 4.76548 10853 ft 192 kts 153°
2026-04-30 20:18 51.81069 4.77554 11349 ft 194 kts 149°
2026-04-30 20:18 51.79908 4.78664 11856 ft 195 kts 150°
2026-04-30 20:19 51.78724 4.79760 12351 ft 197 kts 150°
2026-04-30 20:19 51.77534 4.80874 12835 ft 198 kts 150°
2026-04-30 20:19 51.76334 4.81998 13311 ft 200 kts 150°
2026-04-30 20:19 51.75128 4.83128 13773 ft 201 kts 150°
2026-04-30 20:20 51.73911 4.84265 14229 ft 203 kts 150°
2026-04-30 20:20 51.72686 4.85414 14676 ft 204 kts 150°
2026-04-30 20:20 51.71453 4.86564 15118 ft 206 kts 150°
2026-04-30 20:20 51.70207 4.87729 15551 ft 207 kts 150°
2026-04-30 20:21 51.68966 4.88883 15967 ft 209 kts 150°
2026-04-30 20:21 51.67706 4.90058 16385 ft 210 kts 150°
2026-04-30 20:21 51.66434 4.91241 16781 ft 211 kts 150°
2026-04-30 20:21 51.65156 4.92430 17177 ft 213 kts 150°
2026-04-30 20:22 51.63872 4.93627 17565 ft 214 kts 150°
2026-04-30 20:22 51.62575 4.94830 17942 ft 216 kts 150°
2026-04-30 20:22 51.61267 4.96048 18316 ft 217 kts 150°
2026-04-30 20:22 51.59960 4.97261 18682 ft 218 kts 150°
2026-04-30 20:23 51.58634 4.98494 18996 ft 223 kts 150°
2026-04-30 20:23 51.57241 4.99787 19004 ft 239 kts 150°
2026-04-30 20:23 51.55756 5.01162 19010 ft 252 kts 150°
2026-04-30 20:23 51.54237 5.02565 19008 ft 260 kts 150°
2026-04-30 20:24 51.52645 5.04038 19011 ft 267 kts 150°
2026-04-30 20:24 51.52314 5.04345 19008 ft 269 kts 150°
2026-04-30 20:24 51.51673 5.04938 19010 ft 271 kts 150°
2026-04-30 20:24 51.50011 5.06472 19008 ft 277 kts 150°
2026-04-30 20:25 51.46608 5.09612 19010 ft 288 kts 150°
2026-04-30 20:25 51.44848 5.11235 19009 ft 294 kts 150°
2026-04-30 20:26 51.41254 5.14543 19009 ft 301 kts 150°
2026-04-30 20:26 51.37587 5.17912 19009 ft 306 kts 150°
2026-04-30 20:26 51.35740 5.19603 19009 ft 307 kts 150°
2026-04-30 20:27 51.32012 5.23017 19009 ft 309 kts 150°
2026-04-30 20:27 51.28295 5.26413 19010 ft 310 kts 150°
2026-04-30 20:28 51.24546 5.29837 19009 ft 311 kts 150°
2026-04-30 20:28 51.20780 5.33266 19009 ft 312 kts 150°
2026-04-30 20:29 51.17006 5.36695 19009 ft 312 kts 150°
2026-04-30 20:30 51.11344 5.41827 19010 ft 312 kts 150°
2026-04-30 20:30 51.05679 5.46953 19010 ft 312 kts 150°
2026-04-30 20:31 51.00154 5.52342 19009 ft 312 kts 148°
2026-04-30 20:32 50.94617 5.57798 19009 ft 312 kts 148°
2026-04-30 20:32 50.90922 5.61426 19009 ft 312 kts 148°
2026-04-30 20:33 50.89077 5.63240 19009 ft 312 kts 148°
2026-04-30 20:33 50.85403 5.66841 19009 ft 312 kts 148°
2026-04-30 20:33 50.83534 5.68670 19009 ft 312 kts 148°
2026-04-30 20:34 50.79834 5.72285 19009 ft 313 kts 148°
2026-04-30 20:34 50.76157 5.75870 19009 ft 312 kts 148°
2026-04-30 20:35 50.74303 5.77675 19009 ft 312 kts 148°
2026-04-30 20:35 50.72452 5.79475 19009 ft 312 kts 148°
2026-04-30 20:35 50.68754 5.83074 19009 ft 312 kts 148°
2026-04-30 20:36 50.66907 5.84864 19009 ft 312 kts 148°
2026-04-30 20:36 50.65062 5.86654 19009 ft 311 kts 148°
2026-04-30 20:36 50.61374 5.90223 19009 ft 311 kts 148°
2026-04-30 20:37 50.59543 5.91991 19009 ft 311 kts 148°
2026-04-30 20:37 50.57702 5.93772 19008 ft 311 kts 148°
2026-04-30 20:37 50.55861 5.95545 19008 ft 310 kts 148°
2026-04-30 20:37 50.54025 5.97316 19008 ft 310 kts 148°
2026-04-30 20:38 50.52188 5.99088 19008 ft 310 kts 148°
2026-04-30 20:38 50.50347 6.00860 19008 ft 309 kts 148°
2026-04-30 20:38 50.48516 6.02620 19007 ft 309 kts 148°
2026-04-30 20:39 50.44851 6.06139 19007 ft 308 kts 148°
2026-04-30 20:39 50.43017 6.07896 19007 ft 308 kts 148°
2026-04-30 20:39 50.41187 6.09650 19007 ft 308 kts 148°
2026-04-30 20:40 50.37527 6.13148 19007 ft 308 kts 148°
2026-04-30 20:40 50.35696 6.14897 19007 ft 308 kts 148°
2026-04-30 20:40 50.33865 6.16644 19007 ft 308 kts 148°
2026-04-30 20:41 50.30249 6.20094 19005 ft 282 kts 148°
2026-04-30 20:41 50.28684 6.21581 18991 ft 254 kts 148°
2026-04-30 20:41 50.27202 6.22992 18477 ft 251 kts 148°
2026-04-30 20:41 50.25692 6.24426 17830 ft 254 kts 148°
2026-04-30 20:42 50.24189 6.25856 17297 ft 252 kts 148°
2026-04-30 20:42 50.22707 6.27262 17011 ft 241 kts 149°
2026-04-30 20:42 50.19906 6.29918 16338 ft 234 kts 149°
2026-04-30 20:43 50.18513 6.31237 15983 ft 233 kts 148°
2026-04-30 20:43 50.17130 6.32546 15631 ft 231 kts 149°
2026-04-30 20:43 50.15756 6.33843 15283 ft 230 kts 149°
2026-04-30 20:44 50.13089 6.36364 14999 ft 213 kts 149°
2026-04-30 20:44 50.11856 6.37525 14993 ft 202 kts 149°
2026-04-30 20:44 50.09557 6.39693 14992 ft 187 kts 149°
2026-04-30 20:45 50.07604 6.42084 14992 ft 177 kts 110°
2026-04-30 20:45 50.07150 6.43805 14989 ft 172 kts 133°
2026-04-30 20:45 50.06090 6.44467 15003 ft 167 kts 178°
2026-04-30 20:46 50.02922 6.46282 15007 ft 163 kts 151°
2026-04-30 20:46 50.01927 6.47126 15006 ft 163 kts 151°
2026-04-30 20:47 49.99944 6.48814 15005 ft 162 kts 151°
2026-04-30 20:47 49.98969 6.49641 15004 ft 162 kts 151°
2026-04-30 20:48 49.96997 6.51316 15004 ft 161 kts 151°
2026-04-30 20:48 49.96014 6.52153 15004 ft 161 kts 151°
2026-04-30 20:48 49.95029 6.52987 15003 ft 161 kts 151°
2026-04-30 20:48 49.94045 6.53823 15007 ft 161 kts 151°
2026-04-30 20:49 49.93063 6.54653 15006 ft 161 kts 151°
2026-04-30 20:49 49.92083 6.55485 15002 ft 161 kts 151°
2026-04-30 20:49 49.91096 6.56321 14998 ft 167 kts 151°
2026-04-30 20:50 49.88682 6.58363 15014 ft 223 kts 151°
2026-04-30 20:50 49.87253 6.59571 15011 ft 242 kts 151°
2026-04-30 20:50 49.85735 6.60851 15011 ft 253 kts 151°
2026-04-30 20:50 49.84246 6.62109 15004 ft 235 kts 151°
2026-04-30 20:51 49.82828 6.63302 14995 ft 229 kts 151°
2026-04-30 20:51 49.80053 6.65639 14990 ft 228 kts 151°
2026-04-30 20:51 49.78676 6.66796 14992 ft 228 kts 151°
2026-04-30 20:52 49.77265 6.67986 14995 ft 228 kts 151°
2026-04-30 20:52 49.75885 6.69144 14993 ft 228 kts 152°
2026-04-30 20:52 49.73089 6.71494 14993 ft 229 kts 151°
2026-04-30 20:53 49.71684 6.72671 14992 ft 229 kts 152°
2026-04-30 20:53 49.70281 6.73847 14995 ft 229 kts 151°
2026-04-30 20:53 49.68881 6.75022 14992 ft 229 kts 152°
2026-04-30 20:54 49.66073 6.77371 14992 ft 229 kts 152°
2026-04-30 20:54 49.64671 6.78540 14994 ft 229 kts 152°
2026-04-30 20:54 49.63266 6.79715 14995 ft 230 kts 151°
2026-04-30 20:55 49.60474 6.82045 14993 ft 230 kts 152°
2026-04-30 20:55 49.59525 6.82833 14992 ft 230 kts 152°
2026-04-30 20:55 49.57664 6.84386 14992 ft 230 kts 152°
2026-04-30 20:56 49.54853 6.86726 14995 ft 230 kts 152°
2026-04-30 20:56 49.53446 6.87895 14993 ft 230 kts 152°
2026-04-30 20:56 49.51104 6.89843 14996 ft 230 kts 152°
2026-04-30 20:57 49.49695 6.91010 14994 ft 230 kts 152°
2026-04-30 20:57 49.48287 6.92182 14995 ft 230 kts 152°
2026-04-30 20:57 49.46873 6.93353 14994 ft 230 kts 152°
2026-04-30 20:58 49.44055 6.95686 14993 ft 230 kts 152°
2026-04-30 20:58 49.42645 6.96850 14994 ft 230 kts 152°
2026-04-30 20:58 49.41235 6.98017 14993 ft 227 kts 152°
2026-04-30 20:58 49.39871 6.99144 14359 ft 225 kts 152°
2026-04-30 20:59 49.36942 7.01562 12561 ft 253 kts 152°
2026-04-30 20:59 49.35356 7.02870 10998 ft 262 kts 152°
2026-04-30 21:00 49.32123 7.05531 8900 ft 260 kts 152°
2026-04-30 21:00 49.28812 7.08255 8904 ft 274 kts 152°
2026-04-30 21:01 49.25422 7.11040 8907 ft 277 kts 152°
2026-04-30 21:01 49.23721 7.12436 8908 ft 277 kts 152°
2026-04-30 21:01 49.20668 7.15243 8893 ft 235 kts 156°
2026-04-30 21:02 49.19216 7.16069 8882 ft 229 kts 170°
2026-04-30 21:02 49.17556 7.16099 8902 ft 248 kts 183°
2026-04-30 21:02 49.15846 7.15921 8227 ft 243 kts 184°
2026-04-30 21:02 49.14125 7.15815 6731 ft 250 kts 180°
2026-04-30 21:03 49.12375 7.15872 5243 ft 251 kts 176°
2026-04-30 21:03 49.10801 7.16763 4296 ft 237 kts 141°
2026-04-30 21:03 49.10023 7.18787 3790 ft 215 kts 99°
2026-04-30 21:03 49.10183 7.20909 3464 ft 194 kts 76°
2026-04-30 21:04 49.10532 7.22882 3013 ft 189 kts 75°
2026-04-30 21:04 49.10864 7.24762 2993 ft 184 kts 75°
2026-04-30 21:04 49.11552 7.28664 2999 ft 193 kts 74°
2026-04-30 21:05 49.12016 7.30586 2999 ft 194 kts 64°
2026-04-30 21:05 49.12738 7.32322 2999 ft 194 kts 51°
2026-04-30 21:05 49.13703 7.33721 2996 ft 194 kts 35°
2026-04-30 21:05 49.14867 7.34756 2997 ft 194 kts 28°
2026-04-30 21:06 49.15993 7.35696 2788 ft 178 kts 30°
2026-04-30 21:06 49.17038 7.36666 2345 ft 176 kts 32°
2026-04-30 21:06 49.18076 7.37582 2027 ft 165 kts 28°
2026-04-30 21:06 49.18998 7.38353 1719 ft 138 kts 29°
2026-04-30 21:07 49.19732 7.38991 1405 ft 109 kts 30°
2026-04-30 21:07 49.20345 7.39533 1141 ft 92 kts 30°
2026-04-30 21:07 49.20732 7.39877 1134 ft 26 kts 30°
2026-04-30 21:07 49.20875 7.39996 1131 ft 21 kts 29°
2026-04-30 21:08 49.21001 7.40104 1130 ft 20 kts 30°
2026-04-30 21:08 49.21119 7.40208 1131 ft 18 kts 30°
2026-04-30 21:08 49.21214 7.40293 1129 ft 14 kts 30°
2026-04-30 21:08 49.21279 7.40312 1130 ft 8 kts 331°
2026-04-30 21:09 49.21313 7.40247 1130 ft 2 kts 300°
2026-04-30 21:09 49.21318 7.40234 1134 ft 2 kts 303°
2026-04-30 21:09 49.21354 7.40138 1133 ft 18 kts 302°
2026-04-30 21:09 49.21466 7.40128 1130 ft 20 kts 29°
2026-04-30 21:10 49.21568 7.40219 1129 ft 15 kts 31°
2026-04-30 21:10 49.21644 7.40285 1129 ft 10 kts 26°
2026-04-30 21:10 49.21695 7.40330 1130 ft 8 kts 30°
2026-04-30 21:10 49.21740 7.40370 1131 ft 7 kts 30°
2026-04-30 21:11 49.21787 7.40413 1128 ft 9 kts 30°
2026-04-30 21:11 49.21843 7.40463 1127 ft 10 kts 30°
2026-04-30 21:11 49.21906 7.40502 1128 ft 9 kts 335°
2026-04-30 21:11 49.21942 7.40436 1128 ft 8 kts 303°
2026-04-30 21:12 49.22001 7.40376 1128 ft 12 kts 329°
2026-04-30 21:12 49.22052 7.40334 1126 ft 4 kts 21°
2026-04-30 21:12 49.22069 7.40361 1125 ft 3 kts 59°
2026-04-30 21:12 49.22081 7.40394 1128 ft 4 kts 62°
2026-04-30 21:13 49.22092 7.40431 1124 ft 4 kts 73°
2026-04-30 21:13 49.22096 7.40447 1124 ft 1 kts 72°